ONEWEB-0120, 47266

Orbit data source: Space-Track

ONEWEB-0120, 47266 is a payload satellite owned by One Web (UK) in LEO that was launched on Fri, 18 Dec 2020 UTC via a SOYUZ-2-1B launch vehicle from the Vostochny Cosmodrome (VOSTO). Payload-class satellites include a variety of spacecraft equipped with specific instruments for various scientific and technological missions. These include communications satellites like Starlink; space stations such as the ISS; scientific satellites like the Hubble; Earth observation satellites from companies like Planet Labs, Umbra, and HawkEye 360; GPS; miniature CubeSats for education and research; and military/defense satellites.

Loading next visibility...
Identifier
47266, 2020-100J
Orbit
LEO
Country
Flag of UKUK
Related business
Manufacturer
One Web
Mission
Operational Commercial Communications
Bus & Motor
ARROW, Unknown motor
Mass
148 kg wet, ~140 kg dry
Launch date (UTC)
2020-12-18 (5 years ago)
Launch vehicle
SOYUZ-2-1B
Launch site
Vostochny Cosmodrome (VOSTO)
Object type
Payload
Rocket body
Debris
Shape & HBR
Trap Box + 2 Pan, 6.7 m
Radar Cross Section
3.464 m², Large (>1 m²)

Expand to show TLE details & history
Last TLE update: 5 hours ago

TLE from 5 hours ago
0 ONEWEB-0120
1 47266U 20100J   26095.49870895  .00000423  00000-0  11397-2 0  9992
2 47266  87.9008   5.1106 0001777  75.1569 284.9756 13.12445509255194
Epoch: 2026-04-05T11:58Z
TLE epoch observation values (Epoch: 2026-04-05T11:58:08.453Z)
Latitude
-0.00004°
Longitude
-8.22788°
Altitude
1,216.256 km
Speed
7.246 km/s
True Right ascension
00h 20m 26s
True Declination
0° 00' 00"
Sunlit
Object was in daylight at epoch
Visualization orbit readout
Latitude
Unknown
Longitude
Unknown
Altitude
Unknown
Speed
Unknown
Apparent Right ascension
Unknown
Apparent Declination
Unknown
Sunlit
N/A
Visualization observer readout
Local Sidereal Time
22:55:01
Azimuth
Unknown
Elevation
Unknown
Doppler factor
Unknown
Orbital elements
Apogee altitude
1,212.179 km
Perigee altitude
1,209.482 km
Semi-major axis
7,588.967 km
Eccentricity
0.00018
Inclination
87.9008°
RAAN
5.1106°
Arg. of periapsis
75.1569°
True anomaly
284.95593°
Mean anomaly
284.9756°
Eccentric anomaly
284.96576°
Mean motion
3.28299 °/min
Orbital period
109.66 mins
BSTAR
0.0011397
Loading maneuver chart data...
Computing Atmospheric mass density...
Loading historical data...
Loading historical data...
Loading historical data...
Loading historical data...
Loading historical data...
Loading historical data...
Loading historical data...

Documentation

Showing up to 5 results
|